Minneapolis Crystal, MN

12:52 AM CST on January 19, 2018 (GMT -0600)
Crystal

Weather History for KMIC - May, 2013

Change the Weather History Date:

Wednesday, May 8, 2013

  Actual Average Record
Temperature  
Mean Temperature 65 °F -  
Max Temperature 77 °F 64 °F 83 °F (1992)
Min Temperature 55 °F 43 °F 39 °F (1999)
Growing Degree Days 15 (Base 50)    
Moisture  
Dew Point 50 °F    
Average Humidity 65    
Maximum Humidity 87    
Minimum Humidity 33    
Precipitation  
Precipitation 0.11 in - - ()
Sea Level Pressure  
Sea Level Pressure 29.97 in    
Wind  
Wind Speed 3 mph (NNE)    
Max Wind Speed 13 mph    
Max Gust Speed -    
Visibility 9 miles    
Events Rain    
Averages and records for this station are not official NWS values.
T = Trace of Precipitation, MM = Missing Value Source: NWS Daily Summary

Daily Weather History Graph

Daily Weather History Graph

Search for Another Location

Airport or City:

Trip Planner

Search our weather history database for the weather conditions in past years. The results will help you decide how hot, cold, wet, or windy it might be!

Date:

Astronomy

May. 08, 2013 Rise Set
Actual Time 5:52 AM CDT 8:28 PM CDT
Civil Twilight 5:19 AM CDT 9:01 PM CDT
Nautical Twilight 4:37 AM CDT 9:43 PM CDT
Astronomical Twilight 3:49 AM CDT 10:32 PM CDT
Moon 5:04 AM CDT (5/8) 7:24 PM CDT (5/8)
Length of Visible Light 15h 42m
Length of Day
14h 35m
Waning Crescent, 2% of the Moon is Illuminated
May 8
Waning Crescent
May 9
New
May 17
First Quarter
May 24
Full
May 31
Last Quarter

Hourly Weather History & Observations

Time (CDT) Temp. Dew Point Humidity Pressure Visibility Wind Dir Wind Speed Gust Speed Precip Events Conditions
12:53 AM 55.9 °F 46.9 °F 72% 29.96 in 10.0 mi Calm Calm - N/A   Clear
1:53 AM 57.0 °F 48.0 °F 72% 29.95 in 10.0 mi SSE 3.5 mph - N/A   Clear
2:53 AM 57.9 °F 48.9 °F 72% 29.95 in 10.0 mi South 3.5 mph - N/A   Clear
3:53 AM 59.0 °F 48.9 °F 69% 29.95 in 10.0 mi Calm Calm - N/A   Clear
4:53 AM 55.0 °F 48.9 °F 80% 29.96 in 10.0 mi Calm Calm - N/A   Partly Cloudy
5:53 AM 55.9 °F 50.0 °F 80% 29.96 in 10.0 mi Calm Calm - N/A   Partly Cloudy
6:53 AM 55.9 °F 50.0 °F 80% 29.98 in 10.0 mi Calm Calm - N/A   Mostly Cloudy
7:53 AM 62.1 °F 52.0 °F 70% 29.99 in 10.0 mi Calm Calm - N/A   Overcast
8:53 AM 66.0 °F 48.0 °F 52% 29.99 in 10.0 mi NW 5.8 mph - N/A   Scattered Clouds
9:53 AM 70.0 °F 46.9 °F 44% 29.99 in 10.0 mi Variable 3.5 mph - N/A   Scattered Clouds
10:53 AM 70.0 °F 48.0 °F 46% 29.99 in 10.0 mi Variable 3.5 mph - N/A   Clear
11:53 AM 73.0 °F 46.9 °F 39% 29.99 in 10.0 mi Variable 3.5 mph - N/A   Clear
12:53 PM 75.0 °F 45.0 °F 34% 29.97 in 10.0 mi Calm Calm - N/A   Clear
1:53 PM 75.9 °F 45.0 °F 33% 29.95 in 10.0 mi East 4.6 mph - N/A   Scattered Clouds
2:53 PM 75.9 °F 45.0 °F 33% 29.95 in 10.0 mi ESE 5.8 mph - N/A   Overcast
3:53 PM 66.0 °F 54.0 °F 65% 29.96 in 4.0 mi Variable 3.5 mph - 0.01 in Rain Light Rain
4:53 PM 66.0 °F 54.0 °F 65% 29.95 in 10.0 mi North 8.1 mph - 0.02 in   Overcast
5:53 PM 66.0 °F 53.1 °F 63% 29.95 in 10.0 mi North 12.7 mph - N/A   Scattered Clouds
6:53 PM 64.9 °F 54.0 °F 68% 29.95 in 10.0 mi North 10.4 mph - N/A   Partly Cloudy
7:53 PM 63.0 °F 54.0 °F 72% 29.99 in 5.0 mi NNW 5.8 mph - 0.01 in Rain Light Rain
8:53 PM 60.1 °F 55.9 °F 86% 29.98 in 6.0 mi NNE 6.9 mph - 0.04 in Rain Light Rain
9:53 PM 60.1 °F 55.0 °F 83% 29.99 in 9.0 mi NNE 4.6 mph - 0.00 in Rain Light Rain
10:53 PM 59.0 °F 55.0 °F 87% 30.00 in 6.0 mi NE 4.6 mph - 0.01 in Rain Light Rain
11:53 PM 57.9 °F 54.0 °F 87% 29.99 in 6.0 mi North 8.1 mph - 0.02 in Rain Light Rain